This demonstration page uses our WeatherBlox Daily Observations layout. Learn more.

Left ArrowRight Arrow

Hourly Observations for October 30, 2019

Temp ( °F °C ) Dew Point ( °F °C ) Humidity (%) Winds ( mph kmh ) Pressure ( in mb ) Visibility ( mi km ) Precip ( " mm )
12:17 am 00:17 Cloudy with Light Rain 66 18.9 65 18.3 96 96 Calm 30.14 1021 2 3 0.03 0.76
12:29 am 00:29 Cloudy with Light Rain 66 18.9 64 17.8 93 93 Calm 30.14 1021 3 5 0.03 0.76
12:53 am 00:53 Cloudy 66 18.9 65 18.3 96 96 ENE 3 6 30.13 1020 7 11 0.04 1.02
1:40 am 01:40 Cloudy 66 18.9 65 18.3 96 96 E 5 7 30.11 1020 10 16 0.00 0.00
1:53 am 01:53 Cloudy 66 18.9 65 18.3 96 96 ENE 5 7 30.11 1020 10 16 0.00 0.00
2:53 am 02:53 Cloudy 66 18.9 65 18.3 96 96 ENE 6 9 30.11 1020 9 14 0.00 0.00
3:53 am 03:53 Cloudy with Light Rain 66 18.9 65 18.3 96 96 E 3 6 30.09 1019 5 8 0.00 0.00
4:53 am 04:53 Cloudy 67 19.4 65 18.3 93 93 E 3 6 30.08 1019 10 16 0.01 0.25
5:20 am 05:20 Cloudy 67 19.4 65 18.3 93 93 ESE 5 7 30.08 1019 10 16 0.00 0.00
5:50 am 05:50 Cloudy 66 19 66 19 100 100 ESE 3 6 30.09 1019 10 16 0.01 0.25
5:53 am 05:53 Cloudy with Light Rain 67 19.4 66 18.9 97 97 ESE 3 6 30.09 1019 10 16 0.01 0.25
6:53 am 06:53 Cloudy with Mist and Fog 67 19.4 66 18.9 97 97 ESE 3 6 30.09 1019 3 5 0.00 0.00
7:53 am 07:53 Cloudy with Light Rain 68 20 66 18.9 93 93 ESE 3 6 30.08 1019 3 5 0.00 0.00
8:53 am 08:53 Cloudy with Mist and Fog 69 20.6 66 18.9 90 90 ESE 3 6 30.08 1019 3 5 0.02 0.51
9:53 am 09:53 Cloudy with Light Rain 69 20.6 67 19.4 93 93 SE 9 15 30.08 1019 3 5 0.01 0.25
10:05 am 10:05 Mostly Cloudy with Rain 69 20.6 67 19.4 93 93 ESE 6 9 30.08 1018 3 5 0.13 3.30
10:53 am 10:53 Cloudy with Light Rain 70 21.1 67 19.4 90 90 ESE 7 11 30.06 1018 5 8 0.16 4.06
11:53 am 11:53 Cloudy with Rain 70 21.1 68 20 93 93 SE 6 9 30.05 1018 5 8 0.11 2.79
12:38 pm 12:38 Cloudy with Heavy Rain 70 21.1 68 20 93 93 SE 9 15 30.03 1017 2 3 0.04 1.02
12:48 pm 12:48 Cloudy with Rain 70 21 68 20 94 94 SE 9 15 30.04 1017 3 5 0.06 1.52
12:53 pm 12:53 Cloudy with Rain 70 21.1 68 20 93 93 SE 10 17 30.04 1017 3 5 0.08 2.03
1:01 pm 13:01 Cloudy with Light Rain 70 21.1 68 20 93 93 SE 8 13 30.02 1017 3 4 0.04 1.02
1:11 pm 13:11 Cloudy with Light Rain 70 21.1 68 20 93 93 VRB 7 11 30.02 1017 4 6 0.06 1.52
1:53 pm 13:53 Cloudy with Light Rain 70 21.1 68 20 93 93 SSE 9 15 30.01 1016 5 8 0.12 3.05
2:53 pm 14:53 Cloudy 71 21.7 69 20.6 94 94 SSE 7 11 29.98 1015 10 16 0.04 1.02
3:39 pm 15:39 Cloudy with Heavy Rain 71 21.7 69 20.6 94 94 SSE 9 15 29.96 1015 2 3 0.08 2.03
3:48 pm 15:48 Cloudy with Light Rain 72 22 70 21 94 94 SE 6 9 29.95 1014 3 5 0.09 2.29
3:53 pm 15:53 Cloudy with Light Rain 72 22.2 69 20.6 91 91 SE 7 11 29.96 1015 9 14 0.09 2.29
4:01 pm 16:01 Cloudy with Rain 72 22.2 69 20.6 91 91 SE 6 9 29.95 1014 3 4 0.05 1.27
4:09 pm 16:09 Cloudy with Light Rain 72 22.2 70 21.1 94 94 SSE 8 13 29.95 1014 2 2 0.08 2.03
4:13 pm 16:13 Cloudy with Light Rain 72 22.2 70 21.1 94 94 S 9 15 29.95 1014 4 6 0.08 2.03
4:30 pm 16:30 Cloudy with Light Rain 72 22.2 70 21.1 94 94 SE 9 15 29.95 1014 10 16 0.08 2.03
4:46 pm 16:46 Cloudy with Light Rain 72 22.2 70 21.1 94 94 SE 8 13 29.94 1014 9 14 0.08 2.03
4:53 pm 16:53 Cloudy with Rain 72 22.2 70 21.1 94 94 SE 7 11 29.94 1014 3 5 0.10 2.54
5:09 pm 17:09 Cloudy with Rain 72 22.2 70 21.1 94 94 SSE 10 17 29.94 1014 4 6 0.03 0.76
5:20 pm 17:20 Cloudy with Rain 73 22.8 70 21.1 90 90 S 12 19 29.94 1014 5 8 0.05 1.27
5:27 pm 17:27 Cloudy with Heavy Rain 73 22.8 70 21.1 90 90 S 9 15 29.94 1014 2 3 0.11 2.79
5:42 pm 17:42 Cloudy with Rain 72 22.2 70 21.1 94 94 S 12 19 29.93 1014 2 3 0.22 5.59
5:53 pm 17:53 Cloudy with Heavy Rain 72 22.2 70 21.1 94 94 SSW 6 9 29.94 1014 1 2 0.41 10.41
5:56 pm 17:56 Cloudy with Heavy Rain 72 22.2 70 21.1 94 94 VRB 3 6 29.93 1014 1 1 0.14 3.56
6:02 pm 18:02 Cloudy with Light Rain 72 22.2 70 21.1 94 94 SW 6 9 29.93 1014 1 1 0.16 4.06
6:07 pm 18:07 Cloudy with Rain 72 22.2 70 21.1 94 94 WSW 9 15 29.94 1014 2 3 0.18 4.57
6:10 pm 18:10 Cloudy with Heavy Rain 72 22.2 70 21.1 94 94 SW 6 9 29.94 1014 1 2 0.27 6.86
6:16 pm 18:16 Cloudy with Heavy Rain 72 22.2 70 21.1 94 94 SW 9 15 29.94 1014 1 1 0.33 8.38
6:22 pm 18:22 Cloudy with Light Rain 72 22.2 70 21.1 94 94 WSW 6 9 29.94 1014 3 4 0.33 8.38
6:29 pm 18:29 Cloudy with Light Rain 72 22.2 70 21.1 94 94 SW 3 6 29.94 1014 10 16 0.33 8.38
6:38 pm 18:38 Cloudy with Light Rain 72 22.2 70 21.1 94 94 SSW 8 13 29.95 1014 10 16 0.33 8.38
6:46 pm 18:46 Cloudy 73 22.8 70 21.1 90 90 SSW 6 9 29.95 1014 10 16 0.34 8.64
6:53 pm 18:53 Cloudy 73 22.8 70 21.1 90 90 SSW 9 15 29.96 1015 10 16 0.34 8.64
7:28 pm 19:28 Cloudy 73 22.8 70 21.1 90 90 S 6 9 29.96 1015 10 16 0.00 0.00
7:38 pm 19:38 Cloudy 73 22.8 70 21.1 90 90 SSW 7 11 29.96 1015 10 16 0.00 0.00
7:53 pm 19:53 Cloudy 73 22.8 70 21.1 90 90 S 7 11 29.97 1015 10 16 0.00 0.00
8:14 pm 20:14 Cloudy 73 22.8 70 21.1 90 90 S 6 9 29.95 1014 10 16 0.00 0.00
8:53 pm 20:53 Cloudy 73 22.8 70 21.1 90 90 S 6 9 29.96 1015 10 16 0.00 0.00
9:02 pm 21:02 Cloudy 73 22.8 70 21.1 90 90 S 7 11 29.95 1014 10 16 0.00 0.00
9:15 pm 21:15 Cloudy 73 22.8 70 21.1 90 90 S 7 11 29.95 1014 10 16 0.00 0.00
9:53 pm 21:53 Cloudy 73 22.8 70 21.1 90 90 SSE 9 15 29.95 1014 10 16 0.00 0.00
10:53 pm 22:53 Cloudy 73 22.8 70 21.1 90 90 S 5 7 29.96 1015 10 16 0.00 0.00
11:43 pm 23:43 Cloudy 72 22.2 70 21.1 94 94 S 5 7 29.95 1014 10 16 0.01 0.25
11:53 pm 23:53 Cloudy 72 22.2 70 21.1 94 94 S 6 9 29.96 1014 10 16 0.01 0.25

Powered by AerisWeather